Огаста

США     33°28′27″N   81°57′48″W
темп.,
°C
ветер,
м/с
пор.,
м/с
влажн.,
%
обл.,
%
осадки,
мм/ч
давл.,
гПа
погр.,
м
17 октября, вс
вс1723:00+16с411420 0.0 1018635
02:00+14с412400 0.0 1018541
05:00+12с39490 0.0 1019376
08:00+11с25540 0.0 1020191
11:00+17ссв46350 0.0 1021968
14:00+21ссз23290 0.0 10191477
17:00+21ссз33280 0.0 10181548
20:00+17с22420 0.0 102062
18 октября, пн
пн1823:00+14с37420 0.0 1021198
02:00+12ссв26470 0.0 1022159
05:00+11св24490 0.0 1022119
08:00+11св12513 0.0 102374
11:00+18в11337 0.0 1024577
14:00+23зюз112212 0.0 10211224
17:00+23зюз12205 0.0 10201388
20:00+18зсз123784 0.0 102168
19 октября, вт
вт1923:00+16зсз114229 0.0 102212
02:00+15сз014546 0.0 102211
05:00+13сз11500 0.0 102317
08:00+12ссз11563 0.0 102424
11:00+20юз01350 0.0 1025491
14:00+25ююз22220 0.0 10231330
17:00+25юз32221 0.0 10211523
20:00+19юз12344 0.0 102345
20 октября, ср
ср2023:00+17ю12395 0.0 102339
02:00+16юз124332 0.0 102350
05:00+14з124861 0.0 102438
08:00+14з125290 0.0 102550
11:00+21зюз2442100 0.0 1025529
14:00+26зюз343595 0.0 10231480
17:00+25зюз3335100 0.0 10211487
20:00+21з1149100 0.0 102215
21 октября, чт
чт2123:00+20з0052100 0.0 102217
02:00+19ю2460100 0.0 1022146
05:00+17юз256973 0.0 1021149
08:00+17зюз12735 0.0 102275
11:00+24юз35500 0.0 1022743
14:00+27юз45370 0.0 10191987
17:00+27зюз46353 0.0 10172150
20:00+23юз254911 0.0 1018127